• Join FlightAware (Why Join?)
  • Login
  • US Flag GB Flag 
07:27 EDT


 

Airport Tracker/Info


-or-


 

Live Flight TrackerFlight Track Log ✈ EJA122 ✈ 12-Nov-2013 ✈ KCID - KRFD

Flight Track Log - Related Links

Times and Time Zones

All times are in EST time to prevent confusion due to time zone crossing. See the EJA122 flight status page for this flight to view local times or setup timezone preferences in your user account.

Time Position Orientation Groundspeed Altitude Reporting Facility
EST Latitude Longitude Course Direction KTS MPH feet Rate Location/Type
16:40 41.8969 -91.7617 35° Northeast 187 215 4,100  Level Chicago Center
16:41 41.9447 -91.7164 35° Northeast 244 281 7,700 2,820 Climbing Chicago Center
16:42 41.9542 -91.6131 83° East 287 330 10,000 2,580 Climbing Chicago Center
16:43 41.9667 -91.4978 82° East 306 352 13,100 2,400 Climbing Chicago Center
16:44 41.9792 -91.3744 82° East 324 373 15,000 900 Climbing Chicago Center
16:45 41.9967 -91.2083 82° East 373 429 15,000  Level Chicago Center
16:46 42.0111 -91.0650 82° East 387 445 15,000  Level Chicago Center
16:47 42.0253 -90.9258 82° East 383 441 15,000  Level Chicago Center
16:48 42.0394 -90.7822 82° East 388 447 15,000  Level Chicago Center
16:49 42.0533 -90.6411 82° East 386 444 15,000  Level Chicago Center
16:50 42.0692 -90.4750 83° East 377 434 15,000  Level Chicago Center
16:51 42.0817 -90.3347 83° East 380 437 15,000  Level Chicago Center
16:52 42.0956 -90.1922 82° East 386 444 15,000 -540 Level Chicago Center
16:53 42.1086 -90.0503 83° East 385 443 14,000 -1,020 Descending Chicago Center
16:54 42.1253 -89.8842 82° East 379 436 13,000 -1,500 Descending Chicago Center
16:55 42.1433 -89.7547 79° East 362 417 10,900 -1,800 Descending Chicago Center
16:56 42.1614 -89.6414 78° East 333 383 9,400 -1,680 Descending Chicago Center
16:58 42.1775 -89.5447 77° East 283 326 7,500 -1,980 Descending Chicago Center
16:59 42.1839 -89.4503 85° East 262 302 5,300 -1,860 Descending Chicago Center
17:00 42.1794 -89.3636 94° East 248 285 3,700 -600 Descending Chicago Center
17:02 42.1821 -89.1739 77° East  Level FlightAware Approximate
17:03 42.1544 -89.0692 90° East 162 186 2,500  Level Chicago Center
17:04 42.1733 -89.0036 69° East 165 190 2,400 -120 Descending Chicago Center
17:09 42.1954 -89.0972 90° East  Level Estimated